Terminal Aerodrome Forecast
Issued by NWS Raleigh/Durham, NC

Home | Current Version | Previous Version | Text Only | Print | Product List | Glossary On
Versions: 1 2 3 4 5 6 7 8 9 10 11 12 13 14 15 16 17 18 19 20 21 22 23 24 25 26 27 28 29 30 31 32 33 34 35 36 37 38 39 40 41 42 43 44 45 46 47 48 49 50
000
FTUS42 KRAH 280522
TAFRDU
TAF
KRDU 280522Z 2806/2906 19005KT P6SM FEW050 SCT150 BKN250
      TEMPO 2809/2813 3SM BR SCT010
     FM281500 21006KT P6SM FEW030 BKN040
     FM290000 18003KT P6SM SCT040 BKN250=

USA.gov is the U.S. government's official web portal to all federal, state and local government web resources and services.